Back to catalog

STARLINK-31504

AliveCommunicationsVLEO
NORAD 59303·PAYLOAD·🇺🇸 United States

Launched Mar 24, 2024 from Cape Canaveral Space Force Station

Loading…

Next Passes (next 24 hours)

TLE

FreshSource: CelesTrak SupGP

Epoch: Sep 14, 2026, 21:42 UTC

1 59303C 24056H   26257.90465278  .00035394  00000+0  12823-2 0  2578
2 59303  42.9993 242.2335 0001301 262.1439   2.2237 15.27551615    16

Track STARLINK-31504 in real time with AllMySat

Download on the App Store